Tracking 27423 objects as of 8-Jun-2023
HD Live streaming from Space Station
objects crossing your sky now

COSMOS 1275 DEB

Track COSMOS 1275 DEB now!
10-day predictions


NORAD ID: 20505
Int'l Code: 1981-053MS
Perigee: 769.4 km
Apogee: 789.6 km
Inclination: 83.2 °
Period: 100.3 minutes
Semi major axis: 7150 km
RCS: 0.0047 m2 (small)
Launch date: June 4, 1981
Source: Commonwealth of Independent States (former USSR) (CIS)
Launch site: PLESETSK MISSILE AND SPACE COMPLEX (PKMTR)

Note: This is SATELLITE DEBRIS
Your satellite tracking list
Your tracking list is empty




NASA's NSSDC Master Catalog

Two Line Element Set (TLE):
1 20505U 81053MM  23159.14681857  .00005439  00000-0  18715-2 0  9994
2 20505  83.1548  65.1415 0014163 244.5415 115.4311 14.35810508515748
Source of the keplerian elements: AFSPC